Location: ??
(35.1714°N, 128.2806°E)
Time: 14:52:46
(UTC+00:00)

Okean 1-7 Rocket - Pass Details

Date: 29 October 2020
Orbit: 615 x 650 km, 82.5° (Epoch: 30 November)

Event Time Altitude Azimuth Distance (km) Brightness Sun altitude
Rises 20:18:46 0° 187° (S) 2,950 7.0 -18.4°
Reaches altitude 10° 20:21:01 10° 188° (S) 2,041 6.2 -17.9°
Maximum altitude 20:25:33 83° 276° (W) 654 3.5 -17.0°
Drops below altitude 10° 20:30:06 10° 5° (N) 2,039 6.2 -16.1°
Sets 20:32:21 0° 6° (N) 2,947 7.0 -15.6°
